Location: Groß Eilstorf
(52.8200°N, 9.4552°E)
Time: 11:29:59
(UTC+00:00)

Meteor 1-25 Rocket - Pass Details

Date: 15 May 2026
Orbit: 834 x 892 km, 81.2° (Epoch: 6 June)

Event Time Altitude Azimuth Distance (km) Brightness Sun altitude
Rises 20:21:59 0° 346° (NNW) 3,456 8.6 -8.6°
Reaches altitude 10° 20:24:27 10° 348° (NNW) 2,506 7.7 -8.9°
Maximum altitude 20:30:09 82° 76° (ENE) 865 4.2 -9.4°
Enters shadow 20:35:43 10° 165° (SSE) 2,453 6.0 -10.0°
